Location: Praha
(50.0830°N, 14.4670°E)
Time: 06:07:54
(UTC+01:00)

ISS - Pass Details

Date: 21 February 2020
Orbit: 415 x 423 km, 51.6° (Epoch: 27 February)

Event Time Altitude Azimuth Distance (km) Brightness Sun altitude
Rises 05:54:02 0° 191° (S) 2,353 0.0 -11.7°
Maximum altitude 05:58:28 11° 135° (SE) 1,418 -0.3 -11.0°
Drops below altitude 10° 05:59:37 10° 115° (ESE) 1,503 0.3 -10.8°
Sets 06:02:56 0° 81° (E) 2,375 1.9 -10.3°
